Torna al catalogo

STARLINK-35585

AttivoComunicazioniVLEO
NORAD 66170·PAYLOAD·🇺🇸 United States

Lanciato Oct 25, 2025 da Cape Canaveral Space Force Station

Loading…

Prossimi Passaggi (prossime 24 ore)

TLE

AggiornatoSource: CelesTrak SupGP

Epoca: Sep 14, 2026, 22:49 UTC

1 66170C 25240AA  26257.95118056  .00044010  00000+0  13002-2 0  2573
2 66170  53.1569 259.7491 0001268 100.6360 162.8408 15.34369616    15

Traccia STARLINK-35585 in tempo reale con AllMySat

Download on the App Store